Location: Bear Valley Community Church - Hurst
(32.8460°N, 97.1828°W)
Time: 19:31:53
(UTC+00:00)

Cosmos 1328 Rocket - Pass Details

Date: 07 July 2022
Orbit: 600 x 627 km, 82.5° (Epoch: 17 August)

Event Time Altitude Azimuth Distance (km) Brightness Sun altitude
Rises 07:49:29 0° 6° (N) 2,893 8.0 -31.7°
Reaches altitude 10° 07:51:57 10° 17° (NNE) 1,979 7.0 -31.5°
Enters shadow 07:54:52 27° 55° (NE) 1,177 5.4 -31.3°
